Theta_e
293 293 292 292 291 290 290 289 289 288 288 288 288 288 288 287 287 287 286 284 284 284 285 286 286 286 286 286 286 286 286 287 287 287 287 287 287 287 288 287 287 287 288
293 292 292 291 290 289 288 288 288 288 288 287 287 287 287 287 287 286 284 283 284 284 284 285 286 286 286 286 286 286 286 286 286 287 287 287 287 287 287 286 285 286 288
292 292 291 289 289 288 288 288 287 287 287 287 287 287 286 286 286 285 283 282 283 283 284 285 286 286 286 286 285 285 285 285 286 286 287 287 288 288 287 286 287 287 287
292 291 289 288 288 288 287 287 287 287 287 287 287 287 286 286 285 283 282 282 282 283 284 285 286 286 286 285 285 285 284 285 285 286 287 287 288 288 288 287 287 287 287
291 289 288 288 288 287 287 287 287 287 287 287 287 286 286 285 284 282 282 282 283 284 285 286 286 286 286 285 285 285 285 285 285 285 286 287 288 288 288 287 286 286 287
289 288 288 288 288 287 287 287 287 287 287 287 287 286 286 285 283 282 281 281 283 285 284 285 285 285 285 284 284 283 283 284 285 286 286 287 287 288 288 288 287 288 287
288 289 288 288 288 288 288 288 287 287 287 287 287 286 286 285 282 282 281 282 282 283 283 284 285 284 284 283 282 283 283 284 285 286 287 286 286 286 287 287 289 289 289
289 289 288 288 288 288 288 288 287 287 287 287 286 286 285 285 282 281 280 281 281 282 282 283 284 283 283 283 283 283 284 285 286 287 288 287 286 286 286 287 287 288 288
289 289 289 289 288 288 288 287 287 287 287 286 286 286 285 284 282 280 280 280 281 281 282 283 283 283 283 284 284 284 284 285 286 287 287 287 287 286 285 285 286 288 289
289 289 289 288 288 288 287 286 286 285 285 285 284 285 284 283 281 280 280 280 280 281 282 282 283 283 284 285 285 285 286 286 286 287 287 288 287 286 285 285 286 287 290
289 288 289 288 287 287 286 285 285 283 283 283 283 283 283 282 281 280 280 280 281 281 282 282 283 284 285 285 286 286 287 289 289 288 288 288 287 287 288 288 287 288 289
288 288 289 288 287 287 286 285 284 281 281 281 281 281 281 281 280 280 280 280 281 281 281 283 284 284 284 285 286 287 288 289 289 289 289 288 288 289 289 289 289 289 289
288 288 288 288 287 287 286 285 284 282 282 281 280 280 280 280 279 279 280 280 280 281 282 283 283 284 284 285 286 287 288 288 289 288 288 288 288 288 288 288 289 289 290
289 288 287 288 287 287 286 285 285 284 282 282 280 280 280 280 279 280 280 280 280 281 282 282 283 283 284 285 286 286 287 287 288 288 289 289 289 289 289 289 290 290 290
288 288 286 288 287 287 287 286 285 284 283 281 280 280 280 280 280 280 280 281 280 281 282 282 282 282 283 284 285 286 286 287 287 288 288 289 289 289 289 290 290 290 290
286 287 287 287 286 286 286 286 286 285 285 282 281 281 281 281 280 280 280 281 280 280 281 281 281 281 282 283 284 285 285 286 287 287 288 288 289 289 289 289 290 290 290
288 286 287 287 286 286 286 286 286 286 285 284 282 281 282 281 281 280 280 280 280 279 280 280 280 280 281 282 283 284 285 285 286 286 287 287 288 289 289 289 289 289 290
286 285 287 287 286 286 286 286 286 286 285 285 284 282 282 282 282 281 280 280 280 279 279 279 279 279 280 281 282 283 284 284 285 286 286 287 287 288 289 288 288 288 289
286 285 286 287 286 286 286 286 286 286 285 285 284 283 282 283 282 281 280 279 280 279 278 278 278 278 279 280 281 281 282 282 284 285 286 286 287 288 288 288 288 288 288
287 286 287 287 286 286 287 286 286 285 285 285 284 283 282 283 282 281 280 279 279 279 278 278 277 277 278 278 279 280 280 281 282 284 285 286 286 287 288 288 288 288 287
287 287 287 287 287 286 287 286 285 285 285 285 284 283 283 282 282 281 280 280 279 278 278 277 277 276 277 277 277 278 279 280 282 283 285 285 286 286 287 288 288 287 287
287 287 287 286 286 286 286 286 285 285 284 284 283 284 283 282 281 281 280 280 279 278 277 277 276 276 275 276 276 276 278 280 282 283 284 285 285 286 286 287 288 288 287
287 287 287 287 286 286 285 285 285 284 283 283 282 282 282 282 281 281 280 279 279 278 277 276 276 274 274 275 276 276 277 279 282 283 284 284 285 286 286 286 287 288 287
287 287 287 287 285 285 283 284 283 283 282 282 281 281 281 281 280 280 279 279 279 279 278 276 275 274 274 275 276 277 278 279 282 283 284 284 284 285 286 286 287 287 287
287 286 286 285 284 283 282 282 281 282 281 281 280 280 280 280 280 279 279 279 279 279 279 277 275 274 274 275 276 277 277 279 280 282 283 284 284 284 285 285 286 287 288
285 285 284 284 282 281 281 281 281 280 280 280 280 280 280 280 279 279 279 279 279 278 279 278 276 275 274 275 276 277 277 278 278 280 281 282 283 284 284 285 285 286 286
Wind_Speed
11 12 13 14 16 16 17 18 18 20 21 21 21 22 22 23 23 20 16 22 24 26 27 26 24 22 21 20 20 20 19 18 11 19 20 20 19 19 18 16 18 19 21
11 12 13 15 16 17 18 18 19 20 20 21 21 21 21 23 24 14 25 28 25 27 27 27 24 21 21 20 18 18 18 18 18 17 19 19 22 20 18 20 19 19 20
12 13 14 15 16 17 18 19 19 20 21 21 21 21 21 24 15 20 28 29 27 28 27 25 26 21 20 18 16 18 17 18 18 19 19 20 22 19 18 16 17 16 19
12 14 15 15 16 17 18 19 20 21 21 22 21 21 22 24 15 29 31 30 29 27 27 23 21 21 16 18 17 17 18 19 19 19 18 18 18 20 14 14 13 13 17
12 14 14 15 16 17 19 20 21 22 22 21 21 21 22 21 19 28 32 31 29 28 25 23 21 18 17 15 18 21 19 18 18 17 16 15 14 8 4 7 9 14 17
13 13 14 16 17 19 20 21 23 23 23 22 22 23 22 19 22 27 34 31 27 26 25 24 21 17 18 21 17 23 23 24 21 18 16 12 14 10 5 9 10 8 3
12 14 15 17 18 20 21 22 23 24 24 23 24 24 22 20 26 33 37 28 27 26 26 25 24 21 22 24 28 24 22 20 21 26 19 18 15 13 11 13 10 11 10
13 14 16 18 19 21 22 23 24 24 25 24 25 25 24 20 32 42 37 30 28 28 27 25 25 27 26 27 27 24 22 20 18 18 19 24 17 13 11 10 13 16 18
13 15 17 18 20 20 23 23 25 25 26 26 26 26 26 26 33 40 37 32 31 30 26 23 24 26 30 27 24 21 20 19 13 11 8 11 14 14 13 13 14 12 10
13 15 17 18 20 19 23 24 24 26 25 26 27 26 27 29 31 35 36 31 31 31 26 27 27 33 30 25 24 21 18 19 16 9 8 10 11 8 11 13 13 12 11
15 16 15 17 19 19 21 25 24 27 26 26 27 26 27 29 32 35 36 34 31 30 27 30 31 34 29 28 27 24 21 14 9 4 4 2 3 5 8 9 10 13 9
13 13 15 16 18 18 18 22 23 26 24 25 26 26 28 30 31 36 36 36 35 32 29 31 32 33 33 32 32 31 22 16 12 6 5 3 2 3 3 2 5 8 10
12 14 16 15 18 18 17 19 19 24 22 22 25 25 29 31 34 37 38 37 37 36 35 33 34 34 34 33 35 34 30 25 17 10 8 6 5 3 1 1 3 6 3
14 15 16 16 19 19 17 15 15 22 20 19 22 25 28 30 35 39 38 35 37 38 35 32 31 31 32 32 34 34 31 29 24 20 15 9 8 6 3 3 3 5 4
13 14 18 16 19 19 19 17 19 23 20 18 22 22 27 30 33 35 37 34 36 35 30 31 34 35 34 34 32 32 30 30 27 25 23 18 12 11 10 7 10 10 11
15 15 16 17 19 19 18 19 20 22 22 17 22 25 31 28 32 36 38 34 36 34 31 32 32 32 31 32 30 30 32 31 28 27 25 24 20 17 15 14 14 14 13
13 14 15 16 18 19 20 20 21 22 23 20 25 30 29 27 32 36 37 33 34 35 33 31 31 32 32 32 32 31 30 31 30 30 27 27 24 21 20 19 17 16 18
15 15 16 16 17 18 19 20 21 21 22 21 22 32 31 29 32 33 36 33 36 37 34 32 32 33 33 33 34 33 33 33 32 29 28 27 27 24 21 19 20 17 15
11 19 16 15 18 19 19 19 21 21 21 21 23 32 35 29 30 31 35 33 31 32 34 33 33 34 34 34 35 34 34 34 34 33 32 28 27 24 22 21 21 21 19
12 17 17 16 18 19 20 20 21 21 21 22 22 28 32 29 31 32 33 32 32 31 32 32 34 34 34 34 34 35 35 36 36 34 32 31 29 26 24 22 21 17 18
13 14 15 17 17 19 19 19 21 20 21 22 22 27 29 27 27 28 31 31 31 31 32 32 33 34 35 34 33 33 35 36 37 36 32 31 30 28 26 24 21 21 22
13 14 14 17 18 18 19 19 20 20 21 23 24 24 27 25 27 28 29 31 31 30 31 32 32 34 34 34 33 31 35 36 36 36 32 31 30 29 29 28 27 23 24
12 14 14 15 17 17 19 19 20 21 21 22 25 25 27 25 28 28 29 31 31 33 34 34 35 38 40 38 35 33 33 34 32 31 29 29 30 29 29 28 28 25 24
12 13 14 15 17 17 18 20 20 20 21 21 22 24 26 26 27 28 29 30 30 32 34 35 36 38 38 40 36 35 36 32 29 29 28 29 29 30 29 28 27 25 25
12 13 15 15 16 17 16 16 18 20 20 22 22 23 25 26 28 29 27 28 28 29 32 35 34 36 38 38 37 34 35 34 32 29 29 30 29 29 28 27 26 26 23
11 12 13 13 14 14 15 16 17 19 20 22 22 24 24 26 27 28 29 28 28 27 29 30 33 35 36 37 37 35 33 34 35 32 29 29 29 29 27 26 26 27 27
Wind_Direction
15 12 9 3 359 359 357 354 353 349 348 346 345 344 341 342 338 336 346 332 320 311 309 307 303 299 296 293 289 284 282 279 275 289 285 290 294 290 286 287 286 286 288
12 7 14 3 0 359 356 354 351 349 347 347 346 344 343 340 334 355 348 331 320 314 309 307 302 302 301 299 294 293 294 295 293 293 293 291 288 286 277 282 282 278 278
10 8 13 3 360 358 355 352 350 348 345 344 342 346 345 340 346 346 341 331 321 314 309 305 304 302 301 304 307 300 300 300 295 291 289 286 285 276 273 277 278 283 281
10 12 11 2 357 357 353 350 349 347 342 344 347 346 347 342 349 345 342 334 325 316 311 310 307 304 302 306 303 300 298 295 295 291 285 287 291 275 259 268 289 293 292
13 13 7 359 357 358 353 352 350 347 345 346 344 347 349 350 350 349 344 335 326 319 320 325 319 318 313 313 307 299 296 293 289 288 284 287 292 308 248 247 296 294 290
16 10 6 360 358 359 354 353 351 348 346 347 351 349 352 356 350 353 349 340 333 335 337 333 333 330 331 321 318 311 297 289 279 272 272 279 287 294 279 278 274 282 289
15 8 6 1 358 357 355 351 351 348 348 351 353 352 359 355 360 359 354 348 341 339 337 332 335 335 331 328 323 313 306 296 281 274 253 256 266 280 291 296 290 281 274
15 8 4 1 359 357 355 352 351 349 351 355 355 353 2 1 358 356 357 351 345 342 339 337 340 339 334 329 323 318 311 306 299 284 267 250 253 269 270 282 300 299 288
13 5 2 1 358 357 355 355 353 357 354 358 358 356 5 3 355 359 358 353 347 343 339 342 340 337 339 339 333 320 315 312 309 302 269 262 250 258 258 274 280 298 305
7 1 3 0 355 3 359 1 358 3 357 1 359 360 4 1 358 0 0 355 349 346 344 343 343 347 350 346 342 329 309 309 310 297 286 255 243 262 239 243 260 281 302
7 0 1 4 355 9 7 6 8 6 1 2 358 358 359 358 355 359 1 358 353 347 344 341 345 357 357 356 359 347 349 5 345 282 284 198 222 220 239 244 249 272 294
9 2 358 9 359 5 14 11 11 7 3 0 356 357 356 356 355 356 359 359 359 353 347 346 353 4 5 6 9 17 28 28 50 54 98 94 50 15 91 218 259 270 276
354 3 8 11 2 7 18 13 12 6 3 0 359 357 354 356 356 357 358 359 360 359 359 1 4 6 7 8 14 20 25 31 38 49 60 57 56 58 71 209 279 292 299
18 19 7 10 9 9 14 16 13 5 359 360 1 1 356 356 358 357 355 359 1 1 3 4 6 9 11 10 12 15 19 26 29 29 39 57 76 67 56 351 347 343 12
20 17 13 9 8 9 11 8 13 7 0 3 9 4 356 353 354 357 1 3 6 5 7 11 11 10 9 8 8 11 16 21 22 27 31 36 46 52 50 51 70 71 67
24 5 17 14 12 4 7 3 5 5 5 13 21 10 2 4 4 3 7 9 11 13 17 14 10 8 7 4 5 9 14 16 17 23 26 29 31 38 46 54 62 65 53
18 13 13 14 12 1 6 5 3 8 13 17 26 8 10 10 9 6 10 11 15 18 20 14 11 7 5 6 6 8 11 12 20 23 24 21 26 34 36 39 46 47 45
22 16 10 13 13 5 5 10 8 10 7 11 12 8 10 13 10 10 12 15 15 17 17 14 10 7 6 6 6 7 9 15 16 20 24 24 25 25 33 35 37 36 38
29 26 9 11 17 12 10 12 12 14 11 10 10 10 7 11 11 13 15 18 13 12 12 12 11 9 7 7 7 9 11 12 12 14 19 24 25 29 32 37 41 44 46
26 22 15 18 20 15 11 16 15 15 14 14 18 14 9 10 13 12 12 13 12 11 10 10 10 10 9 9 9 9 11 13 13 12 15 18 23 29 32 37 42 43 44
26 22 25 19 22 20 14 20 19 14 17 16 16 15 17 17 13 12 11 11 10 8 7 8 10 11 10 9 11 11 13 13 14 13 15 19 23 25 32 38 46 51 50
29 23 34 30 18 23 20 21 23 18 21 18 11 12 15 22 18 14 12 11 10 10 10 10 12 13 13 12 12 13 12 12 18 15 15 22 26 29 32 34 40 47 50
29 26 28 31 26 25 21 23 22 23 21 21 16 14 12 20 18 14 13 13 13 12 15 16 17 18 23 24 28 24 17 14 24 27 22 24 29 30 34 35 37 43 50
33 28 27 36 32 31 27 23 21 24 19 20 20 20 17 17 17 16 15 16 15 14 16 20 22 21 24 26 30 32 31 29 34 38 37 37 34 34 37 37 41 47 53
40 34 34 36 38 34 29 26 22 22 20 19 19 19 21 20 20 17 18 16 16 19 16 17 21 22 24 27 29 32 37 33 36 42 43 40 43 44 43 43 45 49 57
47 45 42 39 36 36 33 29 27 26 24 24 23 24 24 24 24 20 22 20 20 18 18 16 20 22 24 26 27 29 34 40 38 38 44 49 46 42 44 46 48 46 49